sat.trackr.live / text

‹ back to catalog

UNKNOWN

NORAD 82381

UNKNOWN UNKNOWN UNKNOWN

§ Identity

Operator
Country
Launch date
Launch site
Launch vehicle
Mass (kg)
RCS (m²)

External: N2YO · Heavens-Above

§ Orbital elements

Epoch: 2026-05-23T02:50:54.536928Z

Period
96.71 min
Inclination
98.3854°
Eccentricity
0.0008074
Mean motion
14.89011227 rev/d
Perigee alt
595.4 km
Apogee alt
606.7 km
Semi-major
6,979.2 km
B*
1.8834e-3
RAAN
21.4646°
Arg perigee
358.9341°
Mean anomaly
1.1856°
Rev number
53,476

§ Raw data

UNKNOWN1 82381U          26143.11868677  .00017710  00000+0  18834-2 0  99932 82381  98.3854  21.4646 0008074 358.9341   1.1856 14.89011227534767

JSON: /api/v1/satellites/82381 · /tle

For live sub-satellite position, see the globe view (requires WebGL).

§ Visibility from observer

Set your observer location to see the next 7 days of passes ≥ 10°. The values pass through the URL so the page stays shareable.

No JS? Fill the form by hand. The geolocation button needs JavaScript.